Showing default

CONNECTA IOT-1, 60472

Orbit data source: Space-Track

CONNECTA IOT-1, 60472 is a payload satellite owned by Plan-S (TR) in SSO that was launched on Fri, 16 Aug 2024 UTC via an FALCON 9 launch vehicle from the Air Force Western Test Range (AFWTR). Payload-class satellites include a variety of spacecraft equipped with specific instruments for various scientific and technological missions. These include communications satellites like Starlink; space stations such as the ISS; scientific satellites like the Hubble; Earth observation satellites from companies like Planet Labs, Umbra, and HawkEye 360; GPS; miniature CubeSats for education and research; and military/defense satellites.

Loading next visibility...
Identifier
60472, 2024-149E
Orbit
SSO
Country
Flag of TRTR / TURK
Related business
Manufacturer
Plan-S
Mission
Operational Commercial Communications
Bus & Motor
CUBESAT 6U, Unknown motor
Mass
10 kg wet, 10 kg dry
Launch date (UTC)
2024-08-16 (2 years ago)
Launch vehicle
FALCON 9
Launch site
Air Force Western Test Range (AFWTR)
Object type
Payload
Rocket body
Debris
Shape & HBR
Box, 2.2 m
Radar Cross Section
0.080 m², Medium (>0.1 m² and < 1m²)

Expand to show TLE details & history
Last TLE update: 22 hours ago

TLE from 22 hours ago
0 CONNECTA IOT-1
1 60472U 24149E   26264.75276685  .00005480  00000-0  22698-3 0  9992
2 60472  97.3686 339.4171 0000868 343.7808  16.3402 15.24323403116509
Epoch: 2026-09-21T18:03Z
TLE epoch observation values (Epoch: 2026-09-21T18:03:59.055Z)
Latitude
-0.00001°
Longitude
67.79296°
Altitude
495.343 km
Speed
7.617 km/s
True Right ascension
22h 37m 40s
True Declination
0° 00' 00"
Sunlit
Object was in full shadow at epoch
Visualization orbit readout
Latitude
Unknown
Longitude
Unknown
Altitude
Unknown
Speed
Unknown
Apparent Right ascension
Unknown
Apparent Declination
Unknown
Sunlit
N/A
Visualization observer readout
Local Sidereal Time
09:22:33
Azimuth
Unknown
Elevation
Unknown
Doppler factor
Unknown
Orbital elements
Apogee altitude
490.372 km
Perigee altitude
489.18 km
Semi-major axis
6,867.913 km
Eccentricity
0.00009
Inclination
97.3686°
RAAN
339.4171°
Arg. of periapsis
343.7808°
True anomaly
16.343°
Mean anomaly
16.3402°
Eccentric anomaly
16.3416°
Mean motion
3.81334 °/min
Orbital period
94.41 mins
BSTAR
0.00022698
Loading maneuver chart data...
Computing Atmospheric mass density...
Loading historical data...
Loading historical data...
Loading historical data...
Loading historical data...
Loading historical data...
Loading historical data...
Loading historical data...

Documentation

Showing up to 5 results
|